MST,Max TemperatureF,Mean TemperatureF,Min TemperatureF,Max Dew PointF,MeanDew PointF,Min DewpointF,Max Humidity, Mean Humidity, Min Humidity, Max Sea Level PressureIn, Mean Sea Level PressureIn, Min Sea Level PressureIn, Max VisibilityMiles, Mean VisibilityMiles, Min VisibilityMiles, Max Wind SpeedMPH, Mean Wind SpeedMPH, Max Gust SpeedMPH,PrecipitationIn, CloudCover, Events, WindDirDegrees
2013-11-1,57,38,20,24,18,12,68,37,15,30.26,30.18,30.09,10,10,7,17,4,,0.00,0,,191
2013-11-2,64,42,21,22,14,9,69,31,8,30.26,30.07,29.87,10,10,7,15,4,20,0.00,0,,218
2013-11-3,57,42,28,35,30,16,73,43,21,29.86,29.78,29.67,10,10,10,23,9,37,0.00,2,,216
2013-11-4,57,39,21,43,31,15,89,55,23,29.87,29.77,29.65,10,10,2,22,6,29,0.22,3,Rain,229
2013-11-5,45,33,21,40,31,6,93,74,19,30.29,30.03,29.79,10,10,2,20,10,23,0.27,6,Rain,276
2013-11-6,51,32,12,26,18,-2,85,54,5,30.45,30.39,30.29,10,10,10,8,3,,0.00,0,,189
2013-11-7,62,44,27,27,21,1,85,48,9,30.45,30.30,30.17,10,10,10,14,4,,0.00,0,,232
2013-11-8,61,41,21,31,23,10,78,46,11,30.21,30.11,29.99,10,10,10,12,4,,0.00,0,,204
2013-11-9,61,43,25,29,25,17,81,47,13,30.21,30.13,30.05,10,10,10,9,3,,0.00,0,,144
2013-11-10,62,42,23,28,25,17,81,47,17,30.29,30.19,30.11,10,10,10,8,3,,0.00,0,,218
2013-11-11,61,42,23,29,24,16,79,44,11,30.29,30.22,30.12,10,10,10,10,4,,0.00,0,,245
2013-11-12,61,44,27,31,23,14,75,42,11,30.43,30.32,30.23,10,10,10,17,5,24,0.00,0,,98
2013-11-13,61,44,27,31,28,18,79,51,21,30.31,30.18,30.05,10,10,6,8,4,,0.00,0,Snow,237
2013-11-14,61,42,24,37,25,17,79,47,12,30.12,29.99,29.82,10,10,6,13,5,,0.00,0,Snow,223
2013-11-15,53,43,33,41,33,23,89,55,32,29.81,29.69,29.52,10,10,6,38,13,60,0.04,4,Rain,222
2013-11-16,48,43,38,40,35,27,89,66,35,29.84,29.70,29.62,10,10,10,26,11,37,0.00,1,,253
2013-11-17,50,38,26,37,33,23,92,65,33,30.19,30.00,29.81,10,10,10,17,8,,0.00,0,,280
2013-11-18,50,36,23,37,32,20,89,67,34,30.19,30.11,30.03,10,10,10,9,3,,0.00,0,,32
2013-11-19,55,42,28,36,30,25,89,59,22,30.04,29.93,29.81,10,10,10,18,4,28,0.00,0,,219
2013-11-20,46,42,39,45,38,29,100,82,65,29.91,29.85,29.79,10,10,6,15,4,,0.12,6,Rain,165
2013-11-21,50,42,33,45,41,32,97,82,55,29.95,29.90,29.86,10,9,5,13,3,,0.16,7,Rain,44
2013-11-22,42,37,32,44,40,31,100,85,59,30.01,29.93,29.83,10,9,0,24,9,32,0.35,5,Fog-Rain-Snow,85
2013-11-23,37,34,30,35,31,25,94,77,52,30.08,30.03,29.97,10,9,1,25,14,36,0.24,5,Rain-Snow,95
2013-11-24,36,30,23,35,29,22,96,86,67,30.17,30.11,30.04,10,8,0,20,12,24,0.08,8,Fog-Rain-Snow,3
2013-11-25,42,28,15,32,29,15,96,79,27,30.32,30.19,30.08,10,10,10,13,7,,0.00,6,,273
2013-11-26,43,36,28,31,27,19,93,76,33,30.42,30.33,30.27,10,10,7,15,5,,0.00,2,,163
2013-11-27,39,32,24,32,27,21,92,77,50,30.31,30.20,30.12,10,10,8,12,2,,0.00,0,,241
2013-11-28,48,34,19,27,24,18,91,64,28,30.22,30.14,30.03,10,10,9,9,3,,0.00,0,,185
2013-11-29,48,34,19,36,29,16,100,77,41,30.31,30.24,30.14,10,8,0,16,2,,0.00,0,Fog,332
2013-11-30,39,31,23,33,31,23,100,95,81,30.38,30.31,30.25,10,4,0,8,4,,0.00,7,Fog,296